Find Starlink 11168

NORAD ID: 60183 Int'l Des: 2024-124 Owner: SPXS Country: US Constellation: starlink operational
別名: STARLINK-11168 [DTC] celestrak
LEOCIRCULAR

現在のビュー

3D地球を読み込み中...

About Starlink 11168

Starlink 11168 (NORAD 60183) is a starlink constellation satellite (v2 mini d2c) launched Jul 3, 2024 by SPXS of US. It operates in LEO, CIRCULAR orbit with a mass of 960.00 kg.

次回通過

Passes for default location (London). Set your location on the main map for personalized predictions.

高度履歴

Loading altitude history...

軌道要素

1 60183U 24124A 26235.93942369 -.00031233 00000-0 -25737-3 0 9995
2 60183 53.1593 56.6983 0003368 101.0344 259.1053 15.69374557123997
Epoch: Aug 23, 2026 • Age: 8 hours

現在のステータス

高度 361.5 km
遠地点 / 近地点 N/A
速度 7.70 km/s
衛星直下点 30.78°N, 13.55°E
打ち上げ日 Jul 3, 2024
運用期間 2.1 years
タイプ internet

技術仕様

分類 Payload
質量 960.00 kg
乾燥質量 910.00 kg
総質量 960.00 kg
長さ 0.30 m
直径 4.10 m
スパン 29.00 m
形状 Box + pan
製造者 SPXS
バスタイプ Starlink V2MD
フェーズステータス In Orbit
所有者/国 SPXS/US

Most Searched